Location: Kelshall
(52.0000°N, 0.0500°W)
Time: 08:18:25
(UTC+00:00)

Meteor 1-15 Rocket - Pass Details

Date: 22 January 2021
Orbit: 840 x 907 km, 81.2° (Epoch: 24 February)

Event Time Altitude Azimuth Distance (km) Brightness Sun altitude
Exits shadow 05:43:14 19° 329° (NNW) 1,947 5.7 -19.7°
Drops below altitude 10° 05:45:43 10° 353° (N) 2,525 6.5 -19.3°
Sets 05:48:45 0° 8° (N) 3,480 7.4 -18.8°
